143  
FPUS83 KFGF 191710  
OPUFGF  
PRAIRIE TO PINES WEATHER ROUNDUP  
NATIONAL WEATHER SERVICE EASTERN NORTH DAKOTA/GRAND FORKS ND  
1100 AM CST SUN JAN 19 2020  
 
**SATELLITE DATA USED TO AUGMENT SKY COVER AT AUTOMATED STATIONS**  
***** WEATHER ACROSS EASTERN NORTH DAKOTA *****  
 
CITY SKY/WX TMP DP RH WIND PRES REMARKS  
GRAND FORKS LGT SNOW 0 -5 79 NW14 30.58R WCI -19  
GRND FORKS AFB CLOUDY 1 -5 74 NW12 30.58R BLWGSNOWWCI -15  
GRND FORKS NWS N/A 1 -1 91 NW5 30.54R WCI -9  
BUXTON NOT AVBL  
DEVILS LAKE FLURRIES -7 -12 79 NW13 30.55R WCI -27  
FARGO PTSUNNY -4 -11 72 NW15 30.59R WCI -25  
WAHPETON ARPT N/A -2 -9 71 NW13 30.60R WCI -21  

 
 
***** WEATHER ACROSS CENTRAL AND WESTERN NORTH DAKOTA *****  
 
CITY SKY/WX TMP DP RH WIND PRES REMARKS  
JAMESTOWN FAIR -7 -13 75 NW15 30.55R WCI -28  
BISMARCK FAIR -6 -14 68 NW14 30.60R WCI -26  
MINOT FAIR -6 -14 68 W12 30.56R WCI -25  
MINOT AFB FAIR -7 -15 69 NW14 30.56R WCI -28  
GARRISON N/A -10 -16 74 MISG 30.55F  
WILLISTON NOT AVBL  
DICKINSON CLOUDY -7 -14 71 NW10 30.48R WCI -25  
HETTINGER CLOUDY 0 -11 59 NW9 30.48S WCI -15  

 
 
***** OTHER OBSERVATIONS NORTHEAST NORTH DAKOTA *****  
 
CITY SKY/WX TMP DP RH WIND PRES REMARKS  
WALHALLA CLOUDY 3 -2 78 NW12 30.58R HAZE WCI -13  
LANGDON CLOUDY 1 -2 85 NW13 30.51R FOG WCI -16  
CAVALIER LGT SNOW 3 0 85 NW10G17 30.57R WCI -12  
GRAFTON LGT SNOW 3 -2 78 NW14 30.60R WCI -15  
CANDO CLOUDY -6 -11 77 NW10 30.57R WCI -23  
FORT TOTTEN N/A -5 -11 75 NW5 29.95S WCI -16  
ROLLA CLOUDY -2 -9 71 NW9 30.51R WCI -18  
RUGBY PTSUNNY -9 -15 77 NW13 30.56S WCI -30  
***** THE ABOVE OBSERVATIONS ARE NON NWS ARE NOT QUALITY  
CONTROLLED AND MAY MIS-REPORT RAIN FOR SNOW...  

 
 
***** OTHER OBSERVATIONS SOUTHEAST NORTH DAKOTA *****  
 
CITY SKY/WX TMP DP RH WIND PRES REMARKS  
COOPERSTOWN FLURRIES -6 -9 84 NW12 30.56R WCI -24  
VALLEY CITY FLURRIES -8 -15 71 NW16 30.57R WCI -30  
OAKES N/A -8 -15 71 NW14 30.59R WCI -28  
GWINNER SUNNY -6 -13 71 NW15 30.58R WCI -27  
SHEYENNE NWR N/A -5 -14 66 NW8 29.95S WCI -20  
BUFFALO NOT AVBL  
WYNDMERE NOT AVBL  
***** THE ABOVE OBSERVATIONS ARE NON NWS ARE NOT QUALITY  
CONTROLLED AND MAY MIS-REPORT RAIN FOR SNOW...  

 
 
***** WEATHER ACROSS NORTHERN MINNESOTA *****  
 
CITY SKY/WX TMP DP RH WIND PRES REMARKS  
FLAG ISLAND LGT SNOW 7 1 78 NW9 30.48R WCI -7  
WARROAD LGT SNOW 7 1 78 NW7 30.49R WCI -5  
ROSEAU LGT SNOW 7 1 78 NW5 30.50R WCI -2  
HALLOCK CLOUDY 7 1 78 NW12 30.56R WCI -9  
THF RVR FALLS FLURRIES 6 1 80 NW12 30.53R WCI -9  
HALSTAD NOT AVBL  
FOSSTON LGT SNOW 0 -6 78 W7 30.51R WCI -13  
BAUDETTE LGT SNOW 7 2 80 NW9 30.46R WCI -7  
WASKISH NOT AVBL  
CROOKSTON CLOUDY 1 -2 85 NW15 30.57R FOG WCI -18  

 
***** WEATHER ACROSS CENTRAL AND WEST MINNESOTA *****  
 
CITY SKY/WX TMP DP RH WIND PRES REMARKS  
BEMIDJI LGT SNOW 3 -2 79 NW8 30.46R WCI -11  
PARK RAPIDS LGT SNOW 2 -5 72 NW9 30.45R WCI -13  
WADENA LGT SNOW 0 -6 78 W8 30.48R WCI -15  
DETROIT LAKES LGT SNOW -2 -8 78 NW10 30.51R WCI -19  
MOORHEAD NOT AVBL  
FERGUS FALLS FAIR -8 -13 77 N17 30.58R WCI -31  
ELBOW LAKE PTSUNNY -7 -13 76 W13 30.55R WCI -27  
MORRIS MN NOT AVBL  
STAPLES FLURRIES 0 -6 78 NW9 30.47R WCI -16  
WHEATON NOT AVBL  

 
***** WEATHER ELSEWHERE ACROSS MINNESOTA *****  
 
CITY SKY/WX TMP DP RH WIND PRES REMARKS  
DULUTH FLURRIES 12 5 73 N12 30.37R WCI -2  
INTRNTL FALLS LGT SNOW 10 5 80 W6 30.43R VSB 3/4 WCI 0  
ELY NOT AVBL  
CLOQUET NOT AVBL  
BRAINERD CLOUDY 7 0 73 NW7 30.46R WCI -5  
HIBBING PTSUNNY 9 4 80 N7 30.40R WCI -2  
ALEXANDRIA CLOUDY -4 -10 75 NW13 30.50R WCI -23  
SAINT CLOUD LGT SNOW 4 -2 76 NW14 30.48R WCI -14  
MINNEAPOLIS LGT SNOW 8 1 73 NW12 30.48R WCI -7  

 
 
***** WEATHER ACROSS SOUTH DAKOTA *****  
 
CITY SKY/WX TMP DP RH WIND PRES REMARKS  
SIOUX FALLS FAIR -3 -11 68 NW14 30.59R WCI -22  
BROOKINGS FAIR -6 -13 71 NW16 30.55R WCI -28  
WATERTOWN FAIR -8 -14 74 NW13 30.53R WCI -28  
HURON FAIR -5 -13 68 NW15 30.65R WCI -26  
SISSETON N/A -5 -12 72 NW17 30.58R WCI -27  
ABERDEEN FAIR -5 -14 65 NW12 30.62R WCI -23  
MITCHELL FAIR -3 -12 65 NW14 30.66R WCI -22  
PIERRE CLOUDY 0 -10 63 NW7 30.61R WCI -13  
MOBRIDGE FAIR -3 -14 59 NW7 30.56R WCI -16  
RAPID CITY CLOUDY 12 6 77 SE6 30.44S WCI 3  

 
 
***** SOME WEATHER IN NEARBY STATES *****  
 
CITY SKY/WX TMP DP RH WIND PRES REMARKS  
GLASGOW MT FAIR -4 -14 62 SE9 30.52S WCI -20  
GREAT FALLS MT FAIR 35 22 58 SW13 30.34R  
CHEYENNE WY FAIR 35 14 42 NW16G22 30.41R  
SCOTTSBLUFF NE CLOUDY 26 16 65 W7 30.45S WCI 18  
OMAHA NE FAIR 4 -6 63 NW14 30.64R WCI -14  
DES MOINES IA PTSUNNY 1 -9 62 NW23 30.56R WCI -22  
DAVENPORT IA CLOUDY 4 -2 76 NW21 30.45R HAZE WCI -17  
CHICAGO IL FAIR 10 2 69 W14 30.28R WCI -6  
EAU CLAIRE WI LGT SNOW 13 5 70 W7 30.40R WCI 3  
LA CROSSE WI CLOUDY 10 1 67 NW15 30.43R WCI -7  

 
 
***** SOME NATIONAL WEATHER *****  
 
CITY SKY/WX TMP DP RH WIND PRES REMARKS  
LA GUARDIA NY PTSUNNY 42 27 55 W20G28 29.74S  
RALEIGH NC PTSUNNY 54 32 43 W9G20 29.91F  
ATLANTA GA FAIR 43 20 39 NW18G25 30.17F  
NEW ORLEANS LA FAIR 53 23 31 N17G26 30.37R  
OKLAHOMA CITY PTSUNNY 42 21 43 W10 30.57R  
ALBUQUERQUE NM FAIR 35 15 44 N9 30.45R  
SALT LAKE CITY FAIR 29 20 69 SE5 30.53S WCI 24  
LOS ANGELES CA PTSUNNY 64 27 24 VRB7 30.11R  
BOISE ID FAIR 30 24 78 CALM 30.53S  
SEATTLE WA MOCLDY 49 36 61 E12 30.20S  

 
 
*** WEATHER ACROSS MANITOBA...SASKATCHEWAN AND ONTARIO ***  
***ONTARIO***  
 
CITY SKY/WX TMP DP RH WIND PRES REMARKS  
GERALDTON MOSUNNY 5 -2 72 NW6 30.32R WCI -6  
THUNDER BAY PTSUNNY 12 3 67 NW6 30.40R WCI 3  
SIOUX LOOKOUT LGT SNOW 5 0 78 N5 30.43R WCI -4  
TORONTO CLOUDY 19 14 79 N7 29.88R WCI 10  
BIG TROUT LK LGT SNOW -4 -9 77 W15G21 30.29F WCI -25  
PICKLE LAKE SUNNY 0 -8 71 W7 30.39R WCI -13  
DRYDEN LGT SNOW 9 3 78 N3 30.42R  
KENORA LGT SNOW 7 3 85 N7 30.44R WCI -5  

 
*** MANITOBA***  
 
CITY SKY/WX TMP DP RH WIND PRES REMARKS  
BRANDON MOSUNNY -4 -11 71 NW8 30.57R WCI -19  
DAUPHIN FLURRIES -2 -8 78 W5 30.63R WCI -12  
ISLAND LAKE NOT AVBL  
PILOT MOUND N/A 0 -6 78 NW9 N/A WCI -16  
THE PAS SUNNY -9 -17 70 SW2 30.63S  
THOMPSON MOSUNNY -9 -15 77 W10 30.52S WCI -28  
WINNIPEG CRYSTALS 3 -2 78 N10 30.57R DRFTSNOWWCI -12  
LYNN LAKE CLEAR -13 -17 84 W8 30.49S WCI -30  
CHURCHILL MOCLDY 0 -8 71 NW17 30.18R WCI -21  
GILLAM CLOUDY -6 -11 77 W16G23 30.35F WCI -28  

 
***SASKATCHEWAN***  
 
CITY SKY/WX TMP DP RH WIND PRES REMARKS  
ESTEVAN SUNNY -13 -17 84 NW8 30.56S WCI -30  
KINDERSLEY MOSUNNY -13 -18 77 SE7 30.41F WCI -29  
LLOYDMINSTER PTCLDY -13 -18 77 S12 30.39S WCI -33  
PRINCE ALBERT PTSUNNY -22 -27 76 VRB2 30.61F  
REGINA PTSUNNY -15 -20 76 S2 30.55F  
YORKTON FLURRIES -9 -15 77 N8 30.56S W  
 
CLICK HERE TO GO TO PREVIOUS BULLETINS.

The Nexlab ND Page
The Nexlab MN Page Main Text Page